Theta_e
301 302 303 303 303 303 303 302 302 302 301 301 301 300 299 304 305 304 303 304 301 301 302 303 302 304 309 314 321 320 319 324 321 321 321 321 321 322 326 332 334 335 334 333 332
304 303 303 303 303 304 303 303 302 302 302 301 301 300 300 302 305 304 303 301 299 301 303 303 303 302 304 318 321 319 318 323 318 318 320 321 320 322 323 331 334 335 335 334 334
306 306 306 306 305 304 304 303 303 302 302 302 301 299 299 300 307 303 301 299 299 303 306 306 306 303 307 317 319 319 321 321 320 321 321 321 320 322 322 321 324 324 324 332 334
308 307 306 305 305 305 304 303 303 303 302 302 300 299 299 301 303 302 299 299 299 300 306 308 308 306 310 313 315 317 319 319 320 321 321 320 321 320 321 322 323 323 325 328 334
307 305 303 303 303 304 304 303 303 303 302 301 300 299 299 302 303 301 300 299 299 299 302 308 311 310 308 309 310 312 315 314 314 313 316 322 322 321 321 322 322 323 323 327 331
303 302 301 300 301 303 303 303 303 303 302 300 299 299 300 302 302 302 300 299 298 299 301 305 309 309 311 311 311 311 312 311 311 311 312 313 319 322 322 323 322 322 323 323 329
301 300 302 302 301 301 302 302 303 303 301 300 300 300 301 302 302 301 299 300 301 302 302 303 306 307 309 309 311 311 311 308 309 310 312 317 318 319 321 323 323 323 323 325 329
301 301 301 302 303 302 302 303 303 302 301 300 301 300 301 301 300 300 301 301 301 301 303 303 305 307 309 310 309 308 308 310 308 308 312 317 309 313 318 320 323 323 323 324 328
302 302 302 301 304 302 303 304 303 301 302 299 302 301 303 299 300 302 302 302 301 303 304 303 305 308 309 308 304 304 303 306 307 308 308 315 314 314 316 318 321 326 326 328 331
304 303 302 303 304 304 304 302 301 301 300 300 301 298 299 300 300 301 300 301 304 302 304 306 307 305 304 304 297 300 304 305 305 306 306 307 308 309 312 315 317 321 324 324 327
305 304 302 304 304 304 301 299 300 300 300 300 300 300 300 299 300 301 302 302 302 303 301 304 303 301 300 302 304 305 306 305 304 304 306 307 308 307 308 311 311 315 317 321 326
303 304 303 304 304 302 299 298 298 298 298 301 300 300 300 300 301 301 302 302 303 301 301 301 302 300 301 302 302 303 304 304 304 304 305 306 307 307 308 309 310 310 314 316 318
304 303 304 304 303 300 299 298 298 299 299 301 300 302 301 300 300 301 303 303 302 303 303 303 299 301 302 302 304 303 302 301 302 303 305 305 306 305 306 308 308 309 310 312 315
304 304 304 304 302 299 299 298 298 299 292 298 299 301 301 299 300 300 303 303 302 303 302 300 301 303 301 302 301 302 301 301 302 303 305 304 305 305 304 307 309 309 309 311 314
304 305 304 303 302 300 298 298 299 298 294 295 298 299 299 300 300 301 302 302 303 301 302 300 300 301 302 302 301 302 302 302 303 305 306 305 307 305 305 308 309 310 311 312 314
304 305 304 302 301 299 298 299 299 293 292 297 297 297 298 299 300 301 301 300 300 301 300 301 302 302 301 301 301 301 302 303 304 302 305 303 305 306 305 305 308 308 310 312 314
305 304 303 302 299 298 298 299 292 293 292 292 297 298 298 299 299 298 298 298 301 300 297 300 300 299 301 302 302 303 302 299 295 303 304 306 305 307 307 306 306 307 309 313 314
304 304 302 300 299 298 300 292 289 284 287 294 297 297 298 297 297 296 298 297 300 301 300 299 297 300 302 304 302 301 300 300 299 304 304 304 303 305 306 307 310 310 310 312 314
304 303 301 300 298 298 299 288 289 287 296 294 295 293 294 296 294 296 296 295 299 301 297 298 299 299 299 299 300 303 304 303 306 304 306 301 303 307 308 308 307 309 309 312 314
304 301 300 299 298 299 293 293 288 294 296 292 293 294 291 291 291 290 293 296 300 301 299 298 300 299 299 300 301 303 303 305 298 306 305 302 303 310 309 308 306 306 306 312 314
303 301 299 298 299 299 290 286 292 296 297 296 288 293 296 294 293 293 289 295 299 299 299 298 300 299 299 300 298 301 304 303 303 303 308 308 308 310 307 305 304 303 304 308 313
301 294 298 299 297 288 288 286 295 297 297 297 292 293 294 295 294 293 289 292 298 297 297 299 300 298 299 298 297 302 302 304 306 303 305 306 307 308 307 306 303 300 305 310 310
300 298 298 299 292 288 291 293 295 296 297 297 297 295 294 296 291 292 287 295 296 294 293 297 296 294 295 296 301 303 301 302 304 306 305 308 307 306 307 307 305 300 301 305 305
300 294 298 299 295 291 290 289 291 295 296 297 297 296 294 295 295 288 289 295 297 296 298 299 297 295 296 298 298 300 299 298 301 304 304 304 304 304 304 307 303 301 300 301 302
299 295 298 296 296 292 291 290 288 293 295 296 297 295 295 293 294 290 288 294 296 297 297 297 294 292 295 296 297 298 298 299 301 302 304 303 304 303 306 307 307 304 300 300 300
300 296 296 293 295 294 294 292 292 292 294 293 296 295 296 290 294 289 294 295 296 295 296 293 289 291 294 293 296 298 298 298 301 302 303 303 305 304 303 305 307 307 302 300 300
301 298 298 295 295 295 295 294 294 293 295 295 295 295 295 296 296 296 296 296 296 295 295 295 294 288 289 291 291 289 296 299 300 301 302 303 303 301 301 304 307 307 301 303 299
Wind_Speed
6 7 7 8 9 10 12 13 13 14 14 14 14 14 13 8 10 9 10 13 15 13 13 14 11 12 10 6 9 4 2 10 6 6 6 8 4 9 8 7 7 9 9 6 14
4 6 7 8 9 10 11 13 14 14 15 15 15 14 11 5 7 12 13 12 14 14 13 14 13 9 3 3 4 6 4 6 6 6 5 16 12 18 9 8 6 9 16 15 14
6 7 8 8 8 9 9 10 11 12 13 14 15 14 11 6 4 9 14 15 14 12 12 12 10 7 2 2 4 4 5 3 2 12 16 18 8 17 9 7 11 15 21 17 20
9 9 9 9 9 8 8 9 9 10 11 13 13 12 9 3 1 8 11 15 14 10 10 11 11 5 5 4 7 6 4 7 8 11 14 7 11 6 23 23 25 19 17 18 25
12 12 11 10 9 8 7 8 8 9 11 14 14 12 5 2 3 6 10 17 14 10 8 9 9 6 4 5 10 4 6 15 19 24 24 21 21 16 20 21 21 24 23 20 25
14 13 10 9 8 7 7 8 8 9 11 13 13 11 5 3 5 9 17 16 11 10 8 5 4 8 6 4 1 8 13 17 16 19 20 20 25 17 3 2 16 24 31 32 30
12 11 9 7 7 7 6 7 8 9 10 11 10 10 3 4 8 13 16 12 11 11 10 6 6 5 8 6 7 12 11 12 9 12 8 14 29 30 24 30 33 35 34 30 33
10 9 8 7 6 6 6 7 8 9 8 8 7 7 2 7 10 12 10 8 10 8 9 6 5 7 5 8 8 5 3 4 5 13 7 10 37 8 16 26 28 33 37 35 37
8 7 6 6 5 5 5 7 8 7 4 7 4 5 2 6 11 8 13 15 12 9 7 5 2 3 3 3 4 4 5 6 7 5 8 9 24 8 14 22 25 25 30 30 34
9 5 4 4 4 4 5 7 5 2 5 2 4 2 6 11 9 9 14 14 8 11 3 5 2 2 3 2 4 5 8 8 12 5 19 23 31 16 23 29 18 20 27 33 32
8 5 4 4 3 3 5 4 1 1 2 2 2 2 5 15 5 10 14 10 8 5 4 4 2 6 7 7 8 9 13 17 14 14 17 22 28 21 23 20 25 22 28 28 31
7 5 5 4 2 2 3 1 2 1 1 1 2 3 5 13 5 10 13 8 5 3 5 4 6 4 3 6 8 8 11 19 17 12 12 19 28 20 16 22 30 32 28 31 33
6 7 7 5 3 0 1 2 2 3 0 0 3 3 4 10 4 6 8 6 1 2 3 3 5 9 4 8 6 6 8 17 18 16 15 20 27 23 20 30 35 41 41 39 38
8 8 9 7 3 3 0 2 4 3 4 3 1 2 4 11 2 7 4 5 3 2 5 6 4 3 6 8 5 11 12 15 13 10 11 6 19 22 19 21 20 34 40 37 40
9 10 10 9 3 2 0 2 3 2 4 3 3 4 11 2 6 2 8 3 4 4 1 7 7 6 8 8 5 11 2 10 15 16 13 18 9 14 8 13 21 18 32 38 44
12 11 10 8 4 3 0 2 2 6 5 2 3 6 5 5 6 6 4 6 6 3 3 9 6 4 6 6 7 13 10 15 15 7 9 27 12 15 15 18 19 20 31 39 40
13 13 11 8 4 3 1 2 5 4 4 5 3 4 2 4 5 5 5 5 4 6 5 5 4 4 4 5 2 2 7 5 5 2 7 2 3 9 16 12 17 21 27 29 35
15 13 11 8 5 4 2 5 4 3 5 2 2 3 3 6 3 5 3 4 0 2 4 4 9 2 3 2 7 11 6 2 5 6 17 14 7 9 6 10 17 20 34 27 31
18 16 11 9 7 5 3 4 7 7 3 3 2 4 4 3 2 6 2 2 2 3 1 4 7 4 9 11 3 3 4 6 7 12 11 4 8 7 9 17 20 22 30 23 28
20 15 11 10 8 7 4 5 4 3 5 4 4 3 2 3 5 5 3 3 1 2 3 4 9 5 5 4 8 6 4 5 4 5 8 6 6 3 14 22 25 22 17 20 28
20 8 10 12 9 4 4 6 4 6 4 4 4 3 4 2 3 1 4 4 4 2 3 2 6 7 7 2 3 4 4 3 4 3 5 8 6 2 9 14 21 24 25 25 24
18 2 12 16 2 2 3 6 4 5 4 2 5 5 5 5 2 3 6 6 4 4 3 1 4 5 10 15 7 5 5 3 4 6 8 11 8 4 4 12 15 18 25 13 24
15 6 14 19 3 3 1 2 4 4 4 5 5 5 4 4 0 4 4 5 6 5 4 2 3 5 10 5 2 2 5 11 13 5 9 9 7 15 14 18 22 17 17 3 15
13 3 5 12 4 6 5 3 3 7 3 4 3 4 2 2 5 4 3 4 3 8 5 3 3 6 6 15 13 16 16 17 10 6 9 14 17 24 25 17 14 23 14 5 6
13 5 10 5 6 5 5 5 4 5 6 9 2 7 6 4 3 5 3 4 5 3 3 3 6 5 14 19 21 23 18 18 15 16 10 20 21 22 17 13 15 27 13 5 3
14 8 7 6 11 10 8 7 10 3 8 5 5 7 8 6 9 8 5 4 5 2 3 3 5 3 8 9 7 16 16 18 13 14 12 13 18 7 19 17 23 20 17 4 3
25 16 11 10 6 5 6 7 10 10 12 7 13 4 7 18 21 23 19 13 10 5 4 3 3 4 6 8 13 4 5 7 6 6 4 6 11 16 19 12 17 21 14 7 5
Wind_Direction
18 16 16 10 6 7 6 7 6 5 7 8 3 2 4 25 39 44 30 8 350 336 332 328 305 277 273 258 228 206 229 242 217 189 240 276 240 245 241 239 206 216 246 220 199
1 351 346 345 348 351 353 357 357 355 354 356 356 355 357 351 2 33 17 358 355 348 345 348 343 329 241 235 225 199 223 246 187 206 235 262 231 247 244 225 236 242 251 259 218
313 313 312 312 320 328 335 343 345 346 344 345 347 348 349 348 338 7 1 355 349 352 353 349 354 353 337 260 221 251 257 259 246 256 258 263 258 248 207 226 237 260 279 265 213
286 290 292 294 296 300 311 324 330 335 334 335 340 345 346 7 2 359 5 3 352 340 338 2 359 26 9 329 336 322 301 333 330 329 305 279 294 250 232 241 255 262 270 268 215
285 286 284 281 281 289 299 309 315 326 330 333 337 343 5 54 45 348 349 349 342 346 337 3 27 14 349 328 329 244 339 321 317 314 306 291 273 266 256 262 257 264 262 258 236
293 289 287 285 277 278 292 302 311 322 327 329 335 347 0 73 353 341 336 345 345 351 6 353 354 345 303 275 260 310 300 303 304 297 289 287 284 271 190 293 262 262 255 254 236
298 291 290 293 288 284 287 296 306 320 325 331 339 352 52 46 351 331 340 353 357 348 346 1 334 331 326 300 296 300 303 308 255 252 238 284 272 253 262 263 264 267 266 261 243
300 291 280 282 289 281 284 293 306 314 318 332 335 351 74 4 344 337 355 357 349 345 342 339 319 312 256 287 331 315 279 334 322 350 267 204 260 341 279 256 247 249 251 247 243
292 281 278 272 275 274 287 300 306 305 297 326 333 4 68 358 356 16 1 350 357 11 345 345 256 263 312 352 349 335 282 286 307 261 286 249 285 345 300 273 263 254 254 247 242
295 270 265 258 268 286 303 315 314 299 316 317 337 17 18 349 355 24 360 349 359 353 23 24 350 19 7 60 251 277 282 276 284 305 307 294 287 295 302 292 278 278 263 249 242
283 255 228 227 261 297 316 319 295 270 33 51 28 43 347 359 10 354 357 357 355 26 15 338 358 230 236 224 245 267 274 277 278 282 275 269 277 282 280 274 283 270 269 269 248
279 228 216 205 214 289 310 263 75 335 296 34 18 33 352 357 342 17 8 13 15 354 325 348 245 269 253 266 256 266 282 287 280 262 256 275 277 278 272 263 266 273 260 256 254
239 205 203 196 192 193 41 69 39 11 38 310 353 341 337 344 340 331 358 342 5 355 326 237 256 324 272 285 290 276 261 276 276 285 271 284 280 282 270 253 254 255 254 248 248
214 198 190 190 220 210 196 20 13 15 67 291 344 13 334 326 282 327 344 344 333 312 299 252 280 301 304 270 237 280 250 269 277 299 287 177 286 280 280 266 246 245 249 236 238
207 190 193 189 210 194 197 360 13 46 4 296 316 330 327 27 328 25 346 327 243 233 106 263 283 284 284 251 168 254 277 275 281 275 281 276 261 290 259 265 247 240 239 229 232
201 194 192 196 208 185 177 4 358 44 253 4 321 354 6 6 351 317 354 344 298 304 228 255 269 256 227 285 224 263 303 288 266 252 262 261 235 269 271 257 259 253 247 237 224
196 193 193 193 202 193 139 15 35 127 329 298 330 358 314 320 339 24 0 12 24 359 344 311 261 273 216 301 295 87 336 307 327 307 255 11 293 240 295 269 252 260 257 241 223
189 193 195 197 185 176 129 56 96 240 226 353 324 306 39 10 12 331 14 14 107 59 299 329 321 272 133 213 277 296 192 235 278 288 291 292 248 258 264 324 327 310 283 247 215
186 187 196 201 183 172 134 72 205 203 174 136 22 40 329 8 52 359 29 235 282 48 131 323 274 286 284 283 173 312 241 224 272 258 266 252 286 308 357 347 335 327 313 213 199
186 183 193 197 183 169 86 236 196 209 129 86 150 129 245 285 27 38 336 236 244 143 74 289 289 260 283 297 245 206 300 316 328 296 298 276 274 281 339 346 327 313 306 240 203
183 176 189 187 176 179 161 220 220 207 167 138 180 196 231 242 158 275 258 285 224 181 241 247 229 284 349 257 261 333 293 297 228 218 290 312 294 1 332 339 323 310 292 282 210
173 138 180 173 151 15 160 189 169 168 182 122 116 182 196 189 224 249 232 223 181 159 304 217 288 280 274 291 261 217 271 261 307 302 281 269 276 209 18 355 333 313 302 223 194
165 136 172 179 169 235 275 275 204 150 191 167 193 197 205 204 273 216 225 265 216 173 183 316 276 316 329 355 330 332 301 292 288 254 266 295 296 316 342 336 341 326 329 299 156
158 125 153 197 234 145 152 230 218 207 176 183 174 146 126 238 202 262 266 281 210 204 237 220 243 207 239 269 291 288 296 286 272 272 299 271 297 315 322 329 338 344 336 355 124
180 193 176 177 219 170 164 133 150 180 207 194 208 204 176 211 227 228 250 283 268 229 176 199 255 226 255 270 275 275 280 280 278 266 264 288 301 301 322 336 344 339 330 358 124
180 159 160 153 151 142 189 201 178 206 159 227 216 205 191 197 199 199 193 195 238 138 190 176 277 307 283 270 287 298 282 276 266 265 265 276 291 308 331 336 340 1 352 316 182
204 184 172 157 143 146 206 187 196 160 214 193 210 160 201 235 245 262 264 252 246 188 214 234 266 349 272 320 314 13 260 289 282 249 271 302 307 318 321 333 336 353 351 333 164